CW9968 Weather Reports


Display with metric or nautical units.
time (UTC)temp
F
wind
direction
speed
MPH
gust
MPH
rain 1hr
in
rain 24hr
in
rain mn
in
humidity
%
barometer
mb
20181017005805 48 186 0.0 0.0 0.00 0.00 0.00 60 1018.1
20181017005306 48 186 0.0 0.0 0.00 0.00 0.00 60 1018.1
20181017004806 48 186 0.0 0.0 0.00 0.00 0.00 60 1018.0
20181017004305 48 186 0.0 0.0 0.00 0.00 0.00 60 1018.1
20181017003806 48 186 0.0 0.0 0.00 0.00 0.00 60 1018.1
20181017003306 48 186 0.0 0.0 0.00 0.00 0.00 59 1018.1
20181017002805 48 186 0.0 0.0 0.00 0.00 0.00 59 1018.1
20181017002305 49 186 0.0 0.0 0.00 0.00 0.00 59 1018.1
20181017001805 49 186 0.0 0.0 0.00 0.00 0.00 58 1018.2
20181017001305 49 186 0.0 0.0 0.00 0.00 0.00 59 1018.1
20181017000805 49 186 0.0 0.0 0.00 0.00 0.00 58 1018.1
20181017000306 49 186 0.0 0.0 0.00 0.00 0.00 58 1018.0
20181016235806 49 186 0.0 0.0 0.00 0.00 0.00 58 1018.0
20181016235306 49 186 0.0 0.0 0.00 0.00 0.00 57 1017.9
20181016234805 49 186 0.0 0.0 0.00 0.00 0.00 57 1017.8
20181016234305 50 186 0.0 0.0 0.00 0.00 0.00 56 1017.8
20181016233806 50 186 0.0 0.0 0.00 0.00 0.00 56 1017.8
20181016233305 50 186 0.0 0.0 0.00 0.00 0.00 55 1017.8
20181016232806 50 186 0.0 0.0 0.00 0.00 0.00 55 1017.9
20181016232305 51 186 0.0 0.0 0.00 0.00 0.00 54 1017.8
20181016231805 51 186 0.0 0.0 0.00 0.00 0.00 54 1017.7
20181016231306 51 186 0.0 0.0 0.00 0.00 0.00 54 1017.7
20181016230806 51 186 0.0 0.0 0.00 0.00 0.00 53 1017.6
20181016230305 51 186 0.0 0.0 0.00 0.00 0.00 53 1017.7
20181016225806 52 186 0.0 0.0 0.00 0.00 0.00 53 1017.7
20181016225305 52 186 0.0 0.0 0.00 0.00 0.00 53 1017.6
20181016224805 52 186 0.0 0.0 0.00 0.00 0.00 52 1017.7
20181016224305 52 185 0.0 0.0 0.00 0.00 0.00 52 1017.7
20181016223805 53 177 0.0 3.0 0.00 0.00 0.00 51 1017.8
20181016223305 53 174 0.0 1.0 0.00 0.00 0.00 51 1017.7
20181016222805 53 170 0.0 0.0 0.00 0.00 0.00 50 1017.7
20181016222305 53 156 1.0 6.0 0.00 0.00 0.00 51 1017.8
20181016221805 53 156 0.0 3.0 0.00 0.00 0.00 51 1017.8
20181016221305 53 274 0.0 2.0 0.00 0.00 0.00 51 1018.0
20181016220805 53 277 0.0 0.0 0.00 0.00 0.00 51 1017.9
20181016220305 54 277 0.0 3.0 0.00 0.00 0.00 50 1018.0
20181016215805 54 278 0.0 5.0 0.00 0.00 0.00 50 1017.9
20181016215305 54 279 0.0 3.0 0.00 0.00 0.00 49 1017.9
20181016214805 54 281 0.0 1.0 0.00 0.00 0.00 49 1017.9
20181016214306 54 281 0.0 3.0 0.00 0.00 0.00 48 1017.9
20181016213805 54 268 1.0 9.0 0.00 0.00 0.00 49 1017.9
20181016213305 54 240 1.0 7.0 0.00 0.00 0.00 49 1017.9
20181016212805 54 260 1.0 7.0 0.00 0.00 0.00 49 1018.0
20181016212305 54 274 1.0 5.0 0.00 0.00 0.00 49 1018.1
20181016211806 54 258 1.0 6.0 0.00 0.00 0.00 49 1018.0
20181016211306 54 250 0.0 3.0 0.00 0.00 0.00 48 1018.0
20181016210805 54 250 1.0 5.0 0.00 0.00 0.00 49 1018.3
20181016210305 54 248 0.0 1.0 0.00 0.00 0.00 49 1018.3
20181016205806 54 248 2.0 5.0 0.00 0.00 0.00 48 1018.3
20181016205305 54 246 1.0 3.0 0.00 0.00 0.00 48 1018.3
20181016204805 54 246 0.0 6.0 0.00 0.00 0.00 48 1018.4
20181016204305 54 255 1.0 3.0 0.00 0.00 0.00 49 1018.4
20181016203805 54 254 1.0 3.0 0.00 0.00 0.00 49 1018.4
20181016203305 54 256 0.0 3.0 0.00 0.00 0.00 49 1018.4
20181016202806 54 256 3.0 6.0 0.00 0.00 0.00 47 1018.5
20181016202305 54 228 2.0 3.0 0.00 0.00 0.00 49 1018.8
20181016201806 54 225 1.0 9.0 0.00 0.00 0.00 48 1018.8
20181016201305 54 236 2.0 9.0 0.00 0.00 0.00 49 1018.6
20181016200805 54 216 1.0 3.0 0.00 0.00 0.00 49 1018.7
20181016200305 54 204 3.0 9.0 0.00 0.00 0.00 49 1018.9
20181016195805 54 207 0.0 3.0 0.00 0.00 0.00 50 1018.9
20181016195304 53 207 3.0 12.0 0.00 0.00 0.00 49 1019.1
20181016194805 53 264 5.0 13.0 0.00 0.00 0.00 48 1019.1
20181016194305 53 254 4.0 9.0 0.00 0.00 0.00 48 1019.0
20181016193807 53 224 4.0 6.0 0.00 0.00 0.00 49 1019.2
20181016193305 53 249 3.0 6.0 0.00 0.00 0.00 50 1019.3
20181016192805 53 269 2.0 12.0 0.00 0.00 0.00 51 1019.4
20181016192305 53 253 3.0 6.0 0.00 0.00 0.00 50 1019.5
20181016191805 53 254 3.0 7.0 0.00 0.00 0.00 50 1019.6
20181016191305 53 250 2.0 12.0 0.00 0.00 0.00 50 1019.6
20181016190804 53 221 4.0 7.0 0.00 0.00 0.00 51 1019.6
20181016190305 53 246 1.0 5.0 0.00 0.00 0.00 51 1019.7
20181016185805 53 173 2.0 5.0 0.00 0.00 0.00 51 1019.7
20181016185305 53 229 2.0 3.0 0.00 0.00 0.00 52 1019.8
20181016184805 53 232 0.0 3.0 0.00 0.00 0.00 52 1019.9
20181016184305 53 230 3.0 12.0 0.00 0.00 0.00 51 1020.0
20181016183806 53 209 2.0 3.0 0.00 0.00 0.00 51 1020.1
20181016183305 53 242 1.0 3.0 0.00 0.00 0.00 53 1020.1
20181016182804 52 243 2.0 6.0 0.00 0.00 0.00 51 1020.2
20181016182304 52 245 3.0 6.0 0.00 0.00 0.00 53 1020.3
20181016181805 52 257 2.0 5.0 0.00 0.00 0.00 53 1020.5
20181016181305 52 258 1.0 5.0 0.00 0.00 0.00 53 1020.6
20181016180804 51 261 2.0 6.0 0.00 0.00 0.00 53 1020.7
20181016180305 51 269 1.0 3.0 0.00 0.00 0.00 55 1020.8
20181016175805 51 273 1.0 5.0 0.00 0.00 0.00 56 1020.9
20181016175305 51 266 0.0 3.0 0.00 0.00 0.00 57 1020.9
20181016174805 50 266 2.0 7.0 0.00 0.00 0.00 56 1021.2
20181016174305 51 200 2.0 5.0 0.00 0.00 0.00 55 1021.4
20181016173805 51 205 2.0 7.0 0.00 0.00 0.00 56 1021.5
20181016173305 51 216 2.0 6.0 0.00 0.00 0.00 56 1021.7
20181016172805 51 158 2.0 7.0 0.00 0.00 0.00 56 1021.8
20181016172305 50 251 2.0 5.0 0.00 0.00 0.00 56 1021.8
20181016171805 50 230 2.0 12.0 0.00 0.00 0.00 57 1021.9
20181016171305 50 249 2.0 12.0 0.00 0.00 0.00 57 1021.9
20181016170805 50 238 2.0 5.0 0.00 0.00 0.00 57 1022.1
20181016170305 50 198 1.0 9.0 0.00 0.00 0.00 59 1022.2
20181016165805 49 200 0.0 6.0 0.00 0.00 0.00 59 1022.2
20181016165305 49 168 1.0 7.0 0.00 0.00 0.00 60 1022.3
20181016164805 49 281 1.0 5.0 0.00 0.00 0.00 59 1022.4
20181016164305 49 261 0.0 2.0 0.00 0.00 0.00 60 1022.5
20181016163805 48 261 1.0 3.0 0.00 0.00 0.00 61 1022.5
20181016163306 48 286 0.0 3.0 0.00 0.00 0.00 60 1022.7
20181016162805 48 200 1.0 3.0 0.00 0.00 0.00 62 1022.7
20181016162305 48 173 2.0 5.0 0.00 0.00 0.00 63 1022.8
20181016161805 47 263 1.0 5.0 0.00 0.00 0.00 63 1022.8
20181016161305 47 210 0.0 3.0 0.00 0.00 0.00 64 1022.8
20181016160805 47 219 0.0 3.0 0.00 0.00 0.00 64 1023.0
20181016160304 47 273 0.0 2.0 0.00 0.00 0.00 64 1023.0
20181016155805 46 281 1.0 3.0 0.00 0.00 0.00 64 1023.1
20181016155305 46 263 1.0 9.0 0.00 0.00 0.00 65 1023.1
20181016154805 46 212 0.0 1.0 0.00 0.00 0.00 67 1023.1
20181016154305 46 212 0.0 1.0 0.00 0.00 0.00 66 1023.3
20181016153805 46 205 2.0 10.0 0.00 0.00 0.00 66 1023.3
20181016153306 46 227 0.0 3.0 0.00 0.00 0.00 69 1023.4
20181016152805 45 261 0.0 5.0 0.00 0.00 0.00 69 1023.5
20181016152304 45 165 1.0 7.0 0.00 0.00 0.00 71 1023.8
20181016151804 45 277 0.0 0.0 0.00 0.00 0.00 72 1023.8
20181016151304 44 277 1.0 3.0 0.00 0.00 0.00 73 1023.9
20181016150804 44 288 1.0 3.0 0.00 0.00 0.00 74 1023.9
20181016150305 44 312 1.0 3.0 0.00 0.00 0.00 76 1023.9
20181016145804 43 330 0.0 2.0 0.00 0.00 0.00 78 1023.9
20181016145306 43 329 0.0 0.0 0.00 0.00 0.00 79 1024.0
20181016144805 42 329 0.0 3.0 0.00 0.00 0.00 81 1023.9
20181016144304 42 329 0.0 0.0 0.00 0.00 0.00 81 1024.1
20181016143805 41 329 1.0 16.0 0.00 0.00 0.00 81 1024.1
20181016143305 41 329 0.0 1.0 0.00 0.00 0.00 83 1024.1
20181016142805 41 329 0.0 2.0 0.00 0.00 0.00 83 1024.3
20181016142305 40 328 1.0 3.0 0.00 0.00 0.00 85 1024.3
20181016141805 40 326 0.0 0.0 0.00 0.00 0.00 86 1024.4
20181016141304 39 326 0.0 0.0 0.00 0.00 0.00 86 1024.5
20181016140805 38 326 1.0 5.0 0.00 0.00 0.00 87 1024.5
20181016140304 38 338 0.0 0.0 0.00 0.00 0.00 88 1024.6
20181016135804 37 339 0.0 2.0 0.00 0.00 0.00 88 1024.8
20181016135304 37 340 0.0 0.0 0.00 0.00 0.00 89 1024.7
20181016134805 37 340 0.0 2.0 0.00 0.00 0.00 89 1024.6
20181016134305 36 340 0.0 0.0 0.00 0.00 0.00 90 1024.7
20181016133805 36 340 0.0 2.0 0.00 0.00 0.00 90 1024.7
20181016133305 35 341 0.0 3.0 0.00 0.00 0.00 90 1024.7
20181016132805 35 331 0.0 0.0 0.00 0.00 0.00 91 1024.7
20181016132304 34 331 0.0 1.0 0.00 0.00 0.00 91 1024.7
20181016131805 34 331 0.0 0.0 0.00 0.00 0.00 91 1024.6
20181016131304 34 331 0.0 0.0 0.00 0.00 0.00 91 1024.5
20181016130805 33 331 0.0 0.0 0.00 0.00 0.00 91 1024.4
20181016130304 33 331 0.0 0.0 0.00 0.00 0.00 91 1024.5
20181016125805 33 331 0.0 0.0 0.00 0.00 0.00 91 1024.5
20181016125304 33 331 0.0 0.0 0.00 0.00 0.00 91 1024.4
20181016124805 32 331 0.0 0.0 0.00 0.00 0.00 91 1024.4
20181016124305 32 331 0.0 0.0 0.00 0.00 0.00 91 1024.4
20181016123806 32 331 0.0 0.0 0.00 0.00 0.00 91 1024.4
20181016123305 32 331 0.0 0.0 0.00 0.00 0.00 91 1024.4
20181016122804 32 331 0.0 0.0 0.00 0.00 0.00 91 1024.4
20181016122304 32 331 0.0 0.0 0.00 0.00 0.00 91 1024.3
20181016121804 31 331 0.0 0.0 0.00 0.00 0.00 91 1024.4
20181016121304 31 331 0.0 0.0 0.00 0.01 0.00 91 1024.5
20181016120805 31 331 0.0 0.0 0.00 0.01 0.00 91 1024.6
20181016120305 31 331 0.0 0.0 0.00 0.01 0.00 91 1024.5
20181016115805 31 331 0.0 0.0 0.00 0.01 0.00 91 1024.5
20181016115305 31 331 0.0 0.0 0.00 0.01 0.00 91 1024.6
20181016114805 32 331 0.0 0.0 0.00 0.01 0.00 91 1024.6
20181016114304 32 331 0.0 0.0 0.00 0.01 0.00 91 1024.6
20181016113804 32 331 0.0 0.0 0.00 0.01 0.00 91 1024.7
20181016113304 32 331 0.0 0.0 0.00 0.01 0.00 91 1024.7
20181016112804 32 331 0.0 0.0 0.00 0.01 0.00 91 1024.7
20181016112305 32 331 0.0 0.0 0.00 0.01 0.00 90 1024.8
20181016111805 32 331 0.0 0.0 0.00 0.01 0.00 91 1024.8
20181016111304 32 331 0.0 0.0 0.00 0.01 0.00 91 1025.0
20181016110804 32 331 0.0 0.0 0.00 0.02 0.00 91 1024.9
20181016110305 32 331 0.0 0.0 0.00 0.02 0.00 91 1025.0
20181016105805 32 331 0.0 0.0 0.00 0.02 0.00 91 1024.9
20181016105306 32 331 0.0 0.0 0.00 0.02 0.00 91 1025.0
20181016104804 32 331 0.0 0.0 0.00 0.02 0.00 91 1025.0
20181016104305 32 331 0.0 0.0 0.00 0.02 0.00 91 1025.1
20181016103805 32 331 0.0 0.0 0.00 0.02 0.00 90 1025.1
20181016103305 32 331 0.0 0.0 0.00 0.02 0.00 90 1025.1
20181016102804 32 331 0.0 0.0 0.00 0.03 0.00 90 1025.1
20181016102305 32 331 0.0 0.0 0.00 0.03 0.00 90 1025.1
20181016101804 32 331 0.0 0.0 0.00 0.04 0.00 90 1025.2
20181016101304 32 331 0.0 0.0 0.00 0.04 0.00 90 1025.1
20181016100804 32 331 0.0 0.0 0.00 0.04 0.00 90 1025.0
20181016100304 32 331 0.0 0.0 0.00 0.04 0.00 90 1025.0
20181016095805 32 331 0.0 0.0 0.00 0.04 0.00 90 1025.0
20181016095306 32 331 0.0 0.0 0.00 0.04 0.00 90 1025.1
20181016094804 32 331 0.0 0.0 0.00 0.05 0.00 90 1025.1
20181016094305 32 331 0.0 0.0 0.00 0.05 0.00 90 1025.1
20181016093805 32 331 0.0 0.0 0.00 0.06 0.00 90 1025.1
20181016093305 32 331 0.0 0.0 0.00 0.06 0.00 90 1025.2
20181016092804 32 331 0.0 0.0 0.00 0.06 0.00 90 1025.0
20181016092305 32 331 0.0 0.0 0.00 0.06 0.00 90 1025.1
20181016091806 32 331 0.0 0.0 0.00 0.06 0.00 90 1025.0
20181016091305 32 331 0.0 0.0 0.00 0.06 0.00 90 1025.0
20181016090805 32 331 0.0 0.0 0.00 0.06 0.00 90 1025.0
20181016090304 33 331 0.0 0.0 0.00 0.06 0.00 90 1025.1
20181016085804 33 331 0.0 0.0 0.00 0.06 0.00 90 1025.0
20181016085305 33 331 0.0 0.0 0.00 0.06 0.00 90 1025.0
20181016084805 33 331 0.0 0.0 0.00 0.06 0.00 90 1025.0
20181016084304 33 331 0.0 0.0 0.00 0.06 0.00 90 1024.8
20181016083804 33 331 0.0 0.0 0.00 0.06 0.00 90 1024.9
20181016083304 33 331 0.0 0.0 0.00 0.06 0.00 90 1024.8
20181016082804 33 331 0.0 0.0 0.00 0.06 0.00 90 1024.7
20181016082305 33 331 0.0 0.0 0.00 0.06 0.00 90 1024.6
20181016081805 33 331 0.0 0.0 0.00 0.06 0.00 89 1024.6
20181016081304 33 331 0.0 0.0 0.00 0.06 0.00 89 1024.6
20181016080805 33 331 0.0 0.0 0.00 0.06 0.00 89 1024.7
20181016080305 33 331 0.0 0.0 0.00 0.06 0.00 89 1024.7
20181016075805 33 331 0.0 0.0 0.00 0.06 0.00 89 1024.7
20181016075305 33 331 0.0 0.0 0.00 0.06 0.00 89 1024.7
20181016074804 33 331 0.0 0.0 0.00 0.06 0.00 89 1024.7
20181016074304 33 331 0.0 0.0 0.00 0.06 0.00 89 1024.7
20181016073804 33 331 0.0 0.0 0.00 0.06 0.00 89 1024.8
20181016073304 33 331 0.0 0.0 0.00 0.06 0.00 89 1024.8
20181016072804 33 331 0.0 0.0 0.00 0.06 0.00 89 1024.8
20181016072305 33 331 0.0 0.0 0.00 0.06 0.00 89 1024.9
20181016071805 33 331 0.0 0.0 0.00 0.06 0.00 89 1024.8
20181016071304 33 331 0.0 0.0 0.00 0.06 0.00 89 1024.8
20181016070805 34 331 0.0 0.0 0.00 0.06 0.00 89 1024.8
20181016070304 34 331 0.0 0.0 0.00 0.06 0.00 88 1024.8
20181016065804 34 331 0.0 0.0 0.00 0.06 0.00 88 1024.8
20181016065304 34 331 0.0 0.0 0.00 0.06 0.00 88 1024.7
20181016064805 34 331 0.0 0.0 0.00 0.06 0.00 88 1024.7
20181016064305 34 331 0.0 0.0 0.00 0.06 0.00 88 1024.7
20181016063804 34 331 0.0 0.0 0.00 0.06 0.00 88 1024.7
20181016063304 34 331 0.0 0.0 0.00 0.06 0.00 88 1024.9
20181016062804 34 331 0.0 0.0 0.00 0.06 0.00 88 1024.8
20181016062304 34 331 0.0 0.0 0.00 0.06 0.00 88 1024.8
20181016061804 34 331 0.0 0.0 0.00 0.06 0.00 88 1024.6
20181016061304 34 331 0.0 0.0 0.00 0.07 0.00 88 1024.6
20181016060804 34 331 0.0 0.0 0.00 0.08 0.00 88 1024.7
20181016060305 34 331 0.0 0.0 0.00 0.08 0.00 88 1024.5
20181016055804 34 331 0.0 0.0 0.00 0.09 0.00 88 1024.5
20181016055304 34 331 0.0 0.0 0.00 0.09 0.00 88 1024.4
20181016054804 34 331 0.0 0.0 0.00 0.09 0.00 88 1024.4
20181016054304 34 331 0.0 0.0 0.00 0.09 0.00 88 1024.5
20181016053804 34 331 0.0 0.0 0.00 0.09 0.00 87 1024.4
20181016053304 35 331 0.0 0.0 0.00 0.09 0.00 87 1024.5
20181016052805 35 331 0.0 0.0 0.00 0.09 0.00 87 1024.4
20181016052304 35 331 0.0 0.0 0.00 0.09 0.00 87 1024.4
20181016051804 35 331 0.0 0.0 0.00 0.09 0.00 87 1024.4
20181016051304 35 331 0.0 0.0 0.00 0.09 0.00 87 1024.3
20181016050804 35 331 0.0 0.0 0.00 0.09 0.00 87 1024.3
20181016050304 35 331 0.0 0.0 0.00 0.09 0.00 86 1024.2
20181016045804 35 331 0.0 0.0 0.00 0.09 0.00 86 1024.2
20181016045304 35 331 0.0 0.0 0.00 0.09 0.00 86 1024.3
20181016044804 35 331 0.0 0.0 0.00 0.09 0.00 86 1024.3
20181016044304 35 331 0.0 0.0 0.00 0.09 0.00 86 1024.2
20181016043804 35 331 0.0 0.0 0.00 0.09 0.00 86 1024.2
20181016043304 35 331 0.0 0.0 0.00 0.09 0.00 86 1024.1
20181016042804 36 331 0.0 0.0 0.00 0.09 0.00 85 1024.0
20181016042304 36 331 0.0 0.0 0.00 0.09 0.00 85 1024.1
20181016041805 36 331 0.0 0.0 0.00 0.09 0.00 85 1024.1
20181016041304 36 331 0.0 0.0 0.00 0.09 0.00 85 1024.1
20181016040805 36 331 0.0 0.0 0.00 0.09 0.00 85 1024.2
20181016040304 36 331 0.0 0.0 0.00 0.09 0.00 85 1024.2
20181016035804 36 331 0.0 0.0 0.00 0.09 0.09 85 1024.1
20181016035304 36 331 0.0 0.0 0.00 0.09 0.09 85 1024.2
20181016034804 36 331 0.0 0.0 0.00 0.09 0.09 84 1024.2
20181016034304 36 331 0.0 0.0 0.00 0.09 0.09 84 1024.3
20181016033804 36 331 0.0 0.0 0.00 0.09 0.09 84 1024.3
20181016033304 36 331 0.0 0.0 0.00 0.09 0.09 84 1024.1
20181016032804 36 331 0.0 0.0 0.00 0.09 0.09 84 1024.1
20181016032304 36 331 0.0 0.0 0.00 0.09 0.09 84 1024.0
20181016031805 37 331 0.0 0.0 0.00 0.09 0.09 84 1024.1
20181016031304 37 331 0.0 0.0 0.00 0.09 0.09 83 1024.1
20181016030804 37 331 0.0 0.0 0.00 0.09 0.09 83 1024.1
20181016030304 37 331 0.0 0.0 0.00 0.09 0.09 83 1024.0
20181016025804 37 331 0.0 0.0 0.00 0.09 0.09 83 1024.0
20181016025304 37 331 0.0 0.0 0.00 0.09 0.09 82 1024.0
20181016024804 37 331 0.0 0.0 0.00 0.09 0.09 82 1023.9
20181016024304 37 331 0.0 0.0 0.00 0.09 0.09 82 1023.9
20181016023804 37 331 0.0 0.0 0.00 0.09 0.09 82 1023.9
20181016023304 37 331 0.0 0.0 0.00 0.09 0.09 82 1023.9
20181016022804 37 331 0.0 0.0 0.00 0.09 0.09 82 1023.9
20181016022305 38 331 0.0 0.0 0.00 0.09 0.09 81 1024.0
20181016021804 38 331 0.0 0.0 0.00 0.09 0.09 81 1023.9
20181016021304 38 331 0.0 0.0 0.00 0.09 0.09 81 1023.9
20181016020804 38 331 0.0 0.0 0.00 0.09 0.09 81 1023.9
20181016020304 38 331 0.0 0.0 0.00 0.09 0.09 81 1023.8
20181016015804 38 331 0.0 0.0 0.00 0.09 0.09 81 1023.9
20181016015304 38 331 0.0 0.0 0.00 0.09 0.09 81 1024.0
20181016014803 38 331 0.0 0.0 0.00 0.09 0.09 80 1024.0
20181016014304 38 331 0.0 0.0 0.00 0.09 0.09 80 1024.0
20181016013804 38 331 0.0 0.0 0.00 0.09 0.09 80 1024.1
20181016013304 38 331 0.0 0.0 0.00 0.09 0.09 80 1024.1
20181016012804 38 331 0.0 0.0 0.00 0.09 0.09 80 1024.1
20181016012303 39 331 0.0 0.0 0.00 0.09 0.09 80 1024.1
20181016011804 39 331 0.0 0.0 0.00 0.09 0.09 80 1024.2
20181016011304 39 331 0.0 0.0 0.00 0.09 0.09 80 1024.2
20181016010804 39 331 0.0 0.0 0.00 0.09 0.09 79 1024.1
20181016010305 39 331 0.0 0.0 0.00 0.09 0.09 79 1024.0